| time (UTC) | temp C | wind direction | speed KPH | gust KPH | rain 1hr cm | rain 24hr cm | rain mn cm | humidity % | barometer mb |
| 20260510043105 | 22 | 0 | 0.0 | 0.0 | 0.00 | 1.96 | 1.96 | 87 | 1012.7 |
| 20260510041559 | 23 | 0 | 0.0 | 1.6 | 0.00 | 1.96 | 1.96 | 86 | 1012.5 |
| 20260510040058 | 23 | 0 | 0.0 | 0.0 | 0.00 | 1.96 | 1.96 | 86 | 1012.5 |
| 20260510034600 | 22 | 163 | 0.0 | 1.6 | 0.00 | 1.96 | 1.96 | 87 | 1012.7 |
| 20260510033113 | 22 | 0 | 0.0 | 0.0 | 0.00 | 1.96 | 1.96 | 90 | 1012.8 |
| 20260510031558 | 21 | 0 | 0.0 | 3.2 | 0.00 | 1.96 | 1.96 | 92 | 1012.7 |
| 20260510030104 | 21 | 0 | 0.0 | 0.0 | 0.00 | 1.96 | 1.96 | 93 | 1012.3 |
| 20260510024609 | 21 | 0 | 0.0 | 0.0 | 0.00 | 1.96 | 1.96 | 93 | 1011.7 |
| 20260510023100 | 21 | 0 | 0.0 | 0.0 | 0.00 | 1.96 | 1.96 | 92 | 1011.5 |
| 20260510021600 | 21 | 0 | 0.0 | 0.0 | 0.00 | 1.96 | 1.96 | 92 | 1011.0 |
| 20260510020059 | 21 | 0 | 0.0 | 6.4 | 0.00 | 1.96 | 1.96 | 92 | 1010.5 |
| 20260510014557 | 21 | 0 | 0.0 | 0.0 | 0.00 | 1.96 | 1.96 | 92 | 1010.0 |
| 20260510013057 | 21 | 0 | 0.0 | 0.0 | 0.00 | 1.96 | 1.96 | 92 | 1009.8 |
| 20260510011559 | 21 | 0 | 0.0 | 0.0 | 0.00 | 1.96 | 1.96 | 91 | 1009.7 |
| 20260510004601 | 21 | 0 | 0.0 | 0.0 | 0.97 | 1.96 | 1.96 | 88 | 1009.3 |
| 20260510003059 | 21 | 0 | 0.0 | 8.0 | 1.80 | 1.96 | 1.96 | 86 | 1009.5 |
| 20260510001601 | 20 | 163 | 0.0 | 1.6 | 1.96 | 1.96 | 1.96 | 88 | 1010.2 |
| 20260510000103 | 21 | 163 | 0.0 | 4.8 | 1.85 | 1.85 | 1.85 | 82 | 1010.7 |
| 20260509234559 | 22 | 165 | 1.6 | 16.1 | 0.99 | 0.99 | 0.99 | 77 | 1010.6 |
| 20260509233100 | 25 | 167 | 3.2 | 17.7 | 0.15 | 0.15 | 0.15 | 66 | 1009.5 |
| 20260509231601 | 30 | 165 | 3.2 | 9.7 | 0.00 | 0.00 | 0.00 | 66 | 1009.1 |
| 20260509230100 | 30 | 165 | 1.6 | 3.2 | 0.00 | 0.00 | 0.00 | 62 | 1008.9 |
| 20260509224559 | 30 | 0 | 0.0 | 0.0 | 0.00 | 0.00 | 0.00 | 60 | 1008.7 |
| 20260509223103 | 31 | 0 | 0.0 | 0.0 | 0.00 | 0.00 | 0.00 | 60 | 1008.6 |
| 20260509221600 | 31 | 165 | 1.6 | 6.4 | 0.00 | 0.00 | 0.00 | 60 | 1008.4 |
| 20260509220104 | 31 | 165 | 1.6 | 6.4 | 0.00 | 0.00 | 0.00 | 60 | 1008.6 |
| 20260509214628 | 32 | 165 | 0.0 | 3.2 | 0.00 | 0.00 | 0.00 | 59 | 1008.6 |
| 20260509213103 | 32 | 0 | 1.6 | 4.8 | 0.00 | 0.00 | 0.00 | 59 | 1008.6 |
| 20260509211605 | 32 | 165 | 3.2 | 8.0 | 0.00 | 0.00 | 0.00 | 59 | 1008.6 |
| 20260509210109 | 32 | 165 | 0.0 | 3.2 | 0.00 | 0.00 | 0.00 | 58 | 1008.9 |
| 20260509204600 | 32 | 0 | 0.0 | 4.8 | 0.00 | 0.00 | 0.00 | 58 | 1009.2 |
| 20260509203115 | 32 | 165 | 1.6 | 6.4 | 0.00 | 0.00 | 0.00 | 57 | 1009.3 |
| 20260509201600 | 32 | 165 | 0.0 | 6.4 | 0.00 | 0.00 | 0.00 | 56 | 1009.4 |
| 20260509200100 | 32 | 165 | 1.6 | 4.8 | 0.00 | 0.00 | 0.00 | 58 | 1009.6 |
| 20260509194600 | 32 | 165 | 1.6 | 6.4 | 0.00 | 0.00 | 0.00 | 56 | 1009.7 |
| 20260509193104 | 32 | 165 | 1.6 | 4.8 | 0.00 | 0.00 | 0.00 | 57 | 1009.8 |
| 20260509191633 | 31 | 165 | 0.0 | 4.8 | 0.00 | 0.00 | 0.00 | 61 | 1009.8 |
| 20260509190100 | 31 | 0 | 0.0 | 3.2 | 0.00 | 0.00 | 0.00 | 64 | 1009.9 |
| 20260509184602 | 31 | 0 | 0.0 | 1.6 | 0.00 | 0.03 | 0.00 | 63 | 1010.1 |
| 20260509183101 | 30 | 0 | 0.0 | 4.8 | 0.00 | 0.03 | 0.00 | 65 | 1010.4 |
| 20260509181604 | 30 | 165 | 3.2 | 6.4 | 0.00 | 0.03 | 0.00 | 63 | 1010.4 |
| 20260509180109 | 30 | 165 | 0.0 | 9.7 | 0.00 | 0.03 | 0.00 | 65 | 1010.8 |
| 20260509174621 | 30 | 0 | 1.6 | 8.0 | 0.00 | 0.08 | 0.00 | 65 | 1011.1 |
| 20260509173100 | 29 | 165 | 3.2 | 8.0 | 0.00 | 0.08 | 0.00 | 68 | 1011.2 |
| 20260509171606 | 28 | 0 | 0.0 | 6.4 | 0.00 | 0.08 | 0.00 | 76 | 1011.5 |
| 20260509170107 | 27 | 165 | 1.6 | 4.8 | 0.00 | 0.08 | 0.00 | 79 | 1011.7 |
| 20260509164600 | 27 | 0 | 1.6 | 4.8 | 0.00 | 0.08 | 0.00 | 82 | 1011.6 |
| 20260509163112 | 26 | 0 | 0.0 | 0.0 | 0.00 | 0.08 | 0.00 | 84 | 1011.8 |
| 20260509161556 | 26 | 0 | 0.0 | 0.0 | 0.00 | 0.08 | 0.00 | 86 | 1011.6 |
| 20260509160058 | 26 | 0 | 0.0 | 0.0 | 0.00 | 0.08 | 0.00 | 86 | 1011.6 |
| 20260509154558 | 25 | 0 | 0.0 | 0.0 | 0.00 | 0.08 | 0.00 | 87 | 1011.5 |
| 20260509153115 | 25 | 0 | 0.0 | 0.0 | 0.00 | 0.08 | 0.00 | 88 | 1011.4 |
| 20260509151600 | 25 | 0 | 0.0 | 3.2 | 0.00 | 0.08 | 0.00 | 88 | 1011.7 |
| 20260509150058 | 25 | 0 | 0.0 | 0.0 | 0.00 | 0.08 | 0.00 | 90 | 1011.4 |
| 20260509144557 | 24 | 0 | 0.0 | 0.0 | 0.00 | 0.10 | 0.00 | 91 | 1011.2 |
| 20260509143100 | 24 | 0 | 0.0 | 0.0 | 0.00 | 0.10 | 0.00 | 92 | 1011.0 |
| 20260509141557 | 24 | 0 | 0.0 | 0.0 | 0.00 | 0.10 | 0.00 | 93 | 1010.7 |
| 20260509134557 | 23 | 0 | 0.0 | 0.0 | 0.00 | 0.10 | 0.00 | 94 | 1010.9 |
| 20260509133057 | 23 | 0 | 0.0 | 0.0 | 0.00 | 0.10 | 0.00 | 94 | 1011.4 |
| 20260509131601 | 23 | 0 | 0.0 | 0.0 | 0.00 | 0.10 | 0.00 | 95 | 1011.7 |
| 20260509130107 | 23 | 0 | 0.0 | 0.0 | 0.00 | 0.10 | 0.00 | 95 | 1012.0 |
| 20260509124600 | 23 | 0 | 0.0 | 0.0 | 0.00 | 0.10 | 0.00 | 95 | 1011.3 |
| 20260509123100 | 23 | 0 | 0.0 | 0.0 | 0.00 | 0.10 | 0.00 | 95 | 1011.7 |
| 20260509121628 | 23 | 0 | 0.0 | 0.0 | 0.00 | 0.10 | 0.00 | 95 | 1011.4 |
| 20260509114608 | 23 | 0 | 0.0 | 0.0 | 0.00 | 0.10 | 0.00 | 95 | 1011.3 |
| 20260509113101 | 23 | 0 | 0.0 | 0.0 | 0.00 | 0.10 | 0.00 | 95 | 1011.2 |
| 20260509111600 | 23 | 0 | 0.0 | 0.0 | 0.00 | 0.10 | 0.00 | 95 | 1010.9 |
| 20260509110109 | 23 | 0 | 0.0 | 0.0 | 0.00 | 0.10 | 0.00 | 95 | 1011.0 |
| 20260509104600 | 23 | 0 | 0.0 | 0.0 | 0.00 | 0.10 | 0.00 | 94 | 1010.7 |
| 20260509103103 | 23 | 0 | 0.0 | 0.0 | 0.00 | 0.10 | 0.00 | 94 | 1010.7 |
| 20260509101618 | 23 | 0 | 0.0 | 0.0 | 0.00 | 0.10 | 0.00 | 94 | 1010.9 |
| 20260509100057 | 23 | 0 | 0.0 | 0.0 | 0.00 | 0.10 | 0.00 | 94 | 1010.8 |
| 20260509094609 | 23 | 0 | 0.0 | 0.0 | 0.00 | 0.10 | 0.00 | 94 | 1010.3 |
| 20260509093100 | 23 | 0 | 0.0 | 0.0 | 0.00 | 0.10 | 0.00 | 94 | 1010.2 |
| 20260509091607 | 23 | 0 | 0.0 | 0.0 | 0.00 | 0.10 | 0.00 | 94 | 1010.4 |
| 20260509090105 | 23 | 0 | 0.0 | 0.0 | 0.00 | 0.10 | 0.00 | 94 | 1010.8 |
| 20260509084602 | 23 | 0 | 0.0 | 0.0 | 0.00 | 0.10 | 0.00 | 94 | 1010.7 |
| 20260509083103 | 23 | 0 | 0.0 | 0.0 | 0.00 | 0.10 | 0.00 | 94 | 1010.6 |
| 20260509081559 | 23 | 0 | 0.0 | 0.0 | 0.00 | 0.10 | 0.00 | 94 | 1010.6 |
| 20260509080059 | 23 | 0 | 0.0 | 1.6 | 0.00 | 0.10 | 0.00 | 94 | 1010.4 |
| 20260509074559 | 23 | 165 | 0.0 | 3.2 | 0.00 | 0.10 | 0.00 | 94 | 1010.5 |
| 20260509073057 | 23 | 0 | 0.0 | 3.2 | 0.00 | 0.10 | 0.00 | 94 | 1010.3 |
| 20260509071556 | 23 | 0 | 0.0 | 0.0 | 0.00 | 0.10 | 0.00 | 94 | 1010.7 |
| 20260509070057 | 23 | 0 | 0.0 | 0.0 | 0.00 | 0.10 | 0.00 | 94 | 1011.0 |
| 20260509064604 | 23 | 0 | 0.0 | 0.0 | 0.00 | 0.10 | 0.00 | 93 | 1011.1 |
| 20260509063100 | 23 | 0 | 0.0 | 0.0 | 0.00 | 0.10 | 0.00 | 93 | 1011.1 |
| 20260509061558 | 23 | 0 | 0.0 | 0.0 | 0.00 | 0.10 | 0.00 | 93 | 1011.0 |
| 20260509060110 | 23 | 0 | 0.0 | 0.0 | 0.00 | 0.10 | 0.00 | 93 | 1011.1 |
| 20260509054606 | 23 | 0 | 0.0 | 0.0 | 0.00 | 0.10 | 0.00 | 93 | 1011.3 |
| 20260509053134 | 23 | 0 | 0.0 | 3.2 | 0.00 | 0.10 | 0.00 | 93 | 1011.2 |
| 20260509051559 | 23 | 0 | 0.0 | 4.8 | 0.00 | 0.10 | 0.00 | 92 | 1011.2 |
| 20260509050100 | 23 | 0 | 1.6 | 3.2 | 0.00 | 0.10 | 0.00 | 92 | 1011.3 |
| 20260509044659 | 23 | 0 | 1.6 | 4.8 | 0.00 | 0.10 | 0.10 | 92 | 1011.2 |